Overview Statistics Trail Chart Weather Telemetry Raw packets
 

This is the latest recevied weather packets stored in our database for station/object NR0A-4. If no packets are shown the sender has not sent any weather packets the latest 10 day(s).

<< 40 41 42 43 44 45 46 >>
Time Temp. Humidity Pressure Rain* Wind** Luminosity Snow
1788384604 33.33° C 54% 1009.4 hPa 0 mm - 520 W/m² -
1788384304 33.89° C 52% 1009.5 hPa 0 mm - 585 W/m² -
1788384004 33.89° C 54% 1009.5 hPa 0 mm - 564 W/m² -
1788383704 33.89° C 52% 1009.5 hPa 0 mm - 563 W/m² -
1788383404 33.89° C 52% 1009.6 hPa 0 mm - 570 W/m² -
1788383104 33.89° C 52% 1009.6 hPa 0 mm - 578 W/m² -
1788382804 33.89° C 52% 1009.7 hPa 0 mm - 587 W/m² -
1788382503 33.33° C 57% 1009.7 hPa 0 mm - 613 W/m² -
1788382204 33.33° C 55% 1009.8 hPa 0 mm - 677 W/m² -
1788381903 33.33° C 52% 1009.9 hPa 0 mm - 148 W/m² -
1788381604 33.33° C 54% 1009.9 hPa 0 mm - 705 W/m² -
1788381304 33.33° C 54% 1010 hPa 0 mm - 745 W/m² -
1788381004 33.33° C 54% 1009.9 hPa 0 mm - 206 W/m² -
1788380703 33.89° C 54% 1009.9 hPa 0 mm - 766 W/m² -
1788380404 33.89° C 52% 1009.9 hPa 0 mm - 673 W/m² -
1788380104 34.44° C 53% 1009.9 hPa 0 mm - 684 W/m² -
1788379804 33.89° C 55% 1009.9 hPa 0 mm - 687 W/m² -
1788379504 33.89° C 55% 1010 hPa 0 mm - 689 W/m² -
1788379219 33.89° C 54% 1010.1 hPa 0 mm - 691 W/m² -
1788378904 33.89° C 54% 1010.1 hPa 0 mm - 701 W/m² -
1788378604 33.33° C 56% 1010.1 hPa 0 mm - 708 W/m² -
1788378303 33.33° C 55% 1010.2 hPa 0 mm - 714 W/m² -
1788378004 32.78° C 55% 1010.2 hPa 0 mm - 717 W/m² -
1788377704 32.78° C 55% 1010.3 hPa 0 mm - 724 W/m² -
1788377404 32.78° C 55% 1010.3 hPa 0 mm - 726 W/m² -

* Rain latest hour (hover to see other rain measurements)
** Current wind speed in m/s (hover to see current wind gust speed)